Terminal Aerodrome Forecast
Issued by NWS

Home | Current Version | Previous Version | Text Only | Print | Product List | Glossary On
Versions: 1 2 3 4 5 6 7 8 9 10 11 12
000
FTUS45 KFGZ 201120
TAFPGA
TAF
KPGA 201120Z 2012/2112 26010KT P6SM SCT050 BKN100
     FM201600 27010KT P6SM BKN040 OVC100
      TEMPO 2016/2020 6SM -SHRA
     FM202100 31008G15KT P6SM SCT060
     FM202300 01009KT P6SM FEW060=

USA.gov is the U.S. government's official web portal to all federal, state and local government web resources and services.